Printer-friendly version
Follow the MPC on Twitter Follow the MPC on Facebook The MPC blog
Minor Planet Center

MPEC 2007-K36 : 2007 KW2

The following Minor Planet Electronic Circular may be linked-to from your own Web pages, but must not otherwise be redistributed electronically.

A form allowing access to any MPEC is at the bottom of this page.


Read MPEC 2007-K35 Read MPEC 2007-K37


M.P.E.C. 2007-K36                                Issued 2007 May 23, 16:36 UT

     The Minor Planet Electronic Circulars contain information on unusual
         minor planets and routine data on comets.  They are published
   on behalf of Commission 20 of the International Astronomical Union by the
          Minor Planet Center, Smithsonian Astrophysical Observatory,
                          Cambridge, MA 02138, U.S.A.

             Prepared using the Tamkin Foundation Computer Network

                              MPC@CFA.HARVARD.EDU
          URL http://www.cfa.harvard.edu/iau/mpc.html  ISSN 1523-6714

                                   2007 KW2

Observations:
     K07K02W* C2007 05 21.39603 15 58 57.39 +12 45 54.2          18.4 V EK036703
     K07K02W  C2007 05 21.40464 15 59 02.18 +12 46 44.1          18.1 V EK036703
     K07K02W  C2007 05 21.41330 15 59 06.93 +12 47 34.8          19.0 V EK036703
     K07K02W  C2007 05 21.42196 15 59 11.76 +12 48 24.8          18.3 V EK036703
     K07K02W  C2007 05 21.86012 16 03 32.04 +13 30 42.2          18.8 R EK036A80
     K07K02W  C2007 05 21.86085 16 03 32.37 +13 30 46.5          19.1 R EK036A80
     K07K02W  C2007 05 21.86158 16 03 32.84 +13 30 50.7          18.9 R EK036A80
     K07K02W  C2007 05 21.86231 16 03 33.20 +13 30 54.7          19.0 R EK036A80
     K07K02W  C2007 05 21.89291 16 03 50.57 +13 34 02.4          18.4 R EK036473
     K07K02W  C2007 05 21.89795 16 03 53.37 +13 34 31.6          18.4 R EK036473
     K07K02W  C2007 05 21.90300 16 03 56.18 +13 35 00.8          18.5 R EK036473
     K07K02W  C2007 05 21.90965 16 03 59.98 +13 35 34.0          18.6 V EK036A74
     K07K02W  C2007 05 21.91400 16 04 02.37 +13 35 59.3          18.5 V EK036A74
     K07K02W  C2007 05 21.91850 16 04 04.66 +13 36 31.5          19.1 V EK036595
     K07K02W  C2007 05 21.92063 16 04 06.03 +13 36 37.6          18.7 V EK036A74
     K07K02W  C2007 05 21.92292 16 04 07.31 +13 36 50.8          18.7 V EK036A74
     K07K02W  C2007 05 21.92467 16 04 08.07 +13 37 07.5          18.4 V EK036595
     K07K02W  C2007 05 21.92735 16 04 09.76 +13 37 16.4          18.7 V EK036A74
     K07K02W  C2007 05 21.93084 16 04 11.46 +13 37 43.0          18.6 V EK036595
     K07K02W  C2007 05 21.93164 16 04 12.16 +13 37 41.2          18.6 V EK036A74
     K07K02W  C2007 05 21.93947 16 04 16.18 +13 38 29.7          18.9 V EK036A44
     K07K02W  C2007 05 21.94640 16 04 19.99 +13 39 09.6          19.0 V EK036A44
     K07K02W  C2007 05 21.95333 16 04 23.80 +13 39 49.7          19.1 V EK036A44
     K07K02W  C2007 05 21.96350 16 04 29.39 +13 40 48.1          19.0 V EK036A44
     K07K02W  C2007 05 22.24176 16 07 12.18 +14 07 39.3          19.0 R EK036854
     K07K02W  C2007 05 22.24803 16 07 15.57 +14 08 16.9          18.8 R EK036854
     K07K02W  C2007 05 22.25745 16 07 20.74 +14 09 10.0          18.6 R EK036854
     K07K02W  C2007 05 22.26098 16 07 22.66 +14 09 29.2          18.5 R EK036854
     K07K02W  C2007 05 22.32828 16 07 58.98 +14 15 51.0          18.4 V EK036G96
     K07K02W  C2007 05 22.33599 16 08 03.15 +14 16 34.4          18.7 V EK036G96
     K07K02W  C2007 05 22.34371 16 08 07.33 +14 17 17.8          18.8 V EK036G96
     K07K02W  C2007 05 22.35144 16 08 11.47 +14 18 01.1          18.9 V EK036G96
     K07K02W  C2007 05 22.89018 16 13 23.53 +15 07 27.6          18.6 R EK036A24
     K07K02W  C2007 05 22.89093 16 13 23.99 +15 07 31.6          18.5 R EK036A24
     K07K02W  C2007 05 22.89318 16 13 25.29 +15 07 44.0          17.7 R EK036A24
     K07K02W  C2007 05 22.89624 16 13 26.92 +15 08 00.9          17.8 R EK036A24
     K07K02W  C2007 05 22.89708 16 13 27.37 +15 08 05.4          17.9 R EK036A24
     K07K02W  C2007 05 22.89952 16 13 28.73 +15 08 18.4          18.0 R EK036A24
     K07K02W  C2007 05 22.90276 16 13 30.51 +15 08 37.2          18.3 R EK036A24
     K07K02W  C2007 05 22.91175 16 13 35.32 +15 09 26.8          18.1 R EK036A24
     K07K02W  C2007 05 22.91479 16 13 36.99 +15 09 43.3          18.3 R EK036A24
     K07K02W  C2007 05 22.91539 16 13 37.31 +15 09 46.6          18.2 R EK036A24
     K07K02W  C2007 05 23.08085 16 15 07.74 +15 24 35.7                 EK036J95
     K07K02W  C2007 05 23.08377 16 15 09.34 +15 24 51.2                 EK036J95
     K07K02W  C2007 05 23.08670 16 15 10.94 +15 25 07.0          18.7 R EK036J95
     K07K02W  C2007 05 23.40329 16 18 09.10 +15 53 44.2          18.3 V EK036G96
     K07K02W  C2007 05 23.40894 16 18 12.13 +15 54 13.6          18.7 V EK036G96
     K07K02W  C2007 05 23.41459 16 18 15.15 +15 54 43.1          19.1 V EK036G96
     K07K02W  C2007 05 23.42028 16 18 18.21 +15 55 12.6          18.6 V EK036G96

Observer details:
473 Remanzacco.  Observers L. Donato, M. Gonano, V. Gonano, E. Guido,
    V. Santini, G. Sostero.  0.45-m f/4.4 Newtonian reflector + CCD.
595 Farra d'Isonzo.  Observers G. Lombardi, E. Pettarin, F. Piani,
    L. Bittesini.  Measurers G. Lombardi, E. Pettarin.  0.40-m f/4.5 reflector
    + CCD.
703 Catalina Sky Survey.  Observer A. R. Gibbs.  Measurers E. C. Beshore,
    A. Boattini, G. J. Garradd, A. R. Gibbs, A. D. Grauer, R. E. Hill,
    R. A. Kowalski, S. M. Larson, R. H. McNaught.  0.68-m Schmidt + CCD.
854 Sabino Canyon Observatory, Tucson.  Observer J. E. McGaha.  0.36-m f/10.0
    Schmidt-Cassegrain + CCD.
A24 New Millennium Observatory, Mozzate.  Observer E. Cozzi.  0.36-m f/7.6
    Schmidt-Cassegrain + CCD.
A44 Altschwendt.  Observer W. Ries.  0.45-m f/3.6 reflector + CCD.
A74 Bergen-Enkheim Observatory.  Observer U. Suessenberger.  0.36-m f/4.6
    Schmidt-Cassegrain + CCD.
A80 Lindenberg Observatory.  Observer A. Knoefel.  0.30-m f/4 reflector + CCD.
G96 Mt. Lemmon Survey.  Observer S. M. Larson.  Measurers E. C. Beshore,
    A. Boattini, G. J. Garradd, A. R. Gibbs, A. D. Grauer, R. E. Hill,
    R. A. Kowalski, S. M. Larson, R. H. McNaught.  1.5-m reflector + CCD.
J95 Great Shefford.  Observer P. Birtwhistle.  0.40-m f/6.0 Schmidt-Cassegrain
    + CCD.

Orbital elements:
2007 KW2                                                 Earth MOID = 0.0867 AU
Epoch 2007 Apr. 10.0 TT = JDT 2454200.5                 MPC
M 347.29990              (2000.0)            P               Q
n   0.28419133     Peri.   18.24012     -0.45374681     +0.88249465
a   2.2911956      Node   224.99501     -0.83784305     -0.46978496
e   0.5251596      Incl.   10.08105     -0.30353394     -0.02247877
P   3.47           H   22.4           G   0.15           U   7
Residuals in seconds of arc
070521 703  0.1-  0.7+    070521 A74  0.4-  0.1+    070522 A24  0.9+  0.1+
070521 703  0.5+  0.1+    070521 595  0.0   0.2+    070522 A24  0.3+  0.1+
070521 703  0.1-  0.0     070521 A74  0.0   0.0     070522 A24  0.2+  0.0
070521 703  0.4+  0.6-    070521 A44  0.4+  0.4+    070522 A24  0.6+  0.5-
070521 A80  0.3+  0.7-    070521 A44  0.4+  0.2+    070522 A24  0.9+  0.5+
070521 A80  0.9-  0.7-    070521 A44  0.3+  0.3+    070522 A24  0.3-  0.6+
070521 A80  0.1+  0.8-    070521 A44  0.3+  0.1+    070522 A24  0.0   0.4+
070521 A80  0.6-  1.0-    070522 854  0.2-  0.7-    070522 A24  0.1-  0.4+
070521 473  0.0   0.1+    070522 854  0.4-  1.0+    070523 J95  0.2-  0.0
070521 473  0.2+  0.0     070522 854  0.4+  0.3+    070523 J95  0.0   0.1-
070521 473  0.5+  0.2-    070522 854  0.5+  0.6-    070523 J95  0.1+  0.0
070521 A74  0.2-  0.4+    070522 G96  0.2-  0.1-    070523 G96  0.2-  0.1-
070521 A74  0.5-  0.5+    070522 G96  0.1-  0.1-    070523 G96  0.1-  0.1-
070521 595  0.2-  0.2+    070522 G96  0.1+  0.1-    070523 G96  0.1-  0.0
070521 A74  0.6-  0.3+    070522 G96  0.4-  0.2-    070523 G96  0.1+  0.1-
070521 A74  0.4-  0.2+    070522 A24  0.9-  0.2+
070521 595  0.1+  0.5+    070522 A24  0.2-  0.1+

Ephemeris:
2007 KW2                 a,e,i = 2.29, 0.53, 10                  q = 1.0880
Date    TT    R. A. (2000) Decl.     Delta      r     Elong.  Phase     V
2007 05 20    15 45.38   +10 24.1    0.0887   1.089   149.8    27.9    18.6
2007 05 30    17 14.88   +23 27.5    0.107    1.090   133.3    42.6    19.4
2007 06 09    18 15.63   +28 19.1    0.139    1.103   126.2    48.0    20.1
2007 06 19    18 50.99   +28 52.4    0.178    1.129   125.6    47.1    20.7
2007 06 29    19 11.11   +27 21.2    0.219    1.165   128.4    43.1    21.1
2007 07 09    19 22.77   +24 38.9    0.263    1.211   132.8    38.0    21.4
2007 07 19    19 30.09   +21 08.8    0.312    1.264   137.6    32.9    21.8

Timothy B. Spahr             (C) Copyright 2007 MPC           M.P.E.C. 2007-K36

Read MPEC 2007-K35 Read MPEC 2007-K37


MPEC number:

Enter an MPEC number in one of the following forms:

  • 1997-B01 (the full form)
  • J97B01 (the packed version of the full form)
  • B01 (the abbreviated form)

Valid HTML 4.01!